Regional Weather Roundup
Issued by NWS

Home | Current Version | Previous Version | Graphics & Text | Print | Product List | Glossary On
Versions: 1 2 3 4 5 6 7 8 9 10 11 12 13 14 15 16 17 18 19 20 21 22 23 24 25 26 27 28 29 30 31 32 33 34 35 36 37 38 39 40 41 42 43 44 45 46 47 48 49 50
000
ASUS45 KABQ 202110
RWRNM
WEATHER ROUNDUP FOR NEW MEXICO
NATIONAL WEATHER SERVICE ALBUQUERQUE NM
300 PM MDT MON OCT 20 2014

NOTE: "FAIR" MEANS FEW OR NO CLOUDS BELOW 12,000 FEET AGL WITH NO
       SIGNIFICANT WEATHER OR OBSTRUCTIONS TO VISION.

      THIS PRODUCT IS RELEASED AS TWO VERSIONS.  ONE VERSION NEAR
      THE TOP OF THE HOUR CONTAINING PRELIMINARY DATA FROM ALBUQUERQUE
      AND OTHER STATIONS.  A FINAL VERSION WITH ADDITIONAL DATA IS
      ISSUED ABOUT 10 MINUTES AFTER THE HOUR.

NMZ501-503-504-510>518-202200-
NORTHWEST PLATEAU/NORTHCENTRAL MOUNTAINS

CITY           SKY/WX    TMP DP  RH WIND       PRES   REMARKS
FARMINGTON     MOSUNNY   72  39  30 VRB7      30.10F
LOS ALAMOS     PTSUNNY   64  37  36 E3        30.22F
SANTA FE       PTSUNNY   69  36  29 S6        30.15F
TAOS           PTSUNNY   70  32  24 S7        30.19F
ANGEL FIRE     MOCLDY    62  27  26 SE12G17   30.29F

$$
NMZ402-403-502-505>509-202200-
WESTCENTRAL MOUNTAINS/SOUTHWEST MOUNTAINS

CITY           SKY/WX    TMP DP  RH WIND       PRES   REMARKS
GALLUP         MOSUNNY   60  47  61 E10       30.17F
GRANTS         MOSUNNY   64  39  39 CALM      30.18F
SILVER CITY    PTSUNNY   63  50  63 E10       30.13F

$$
NMZ407-409-411-412-202200-
SOUTHERN DESERTS

CITY           SKY/WX    TMP DP  RH WIND       PRES   REMARKS
LORDSBURG      MOCLDY    68  50  52 MISG      30.04F
DEMING         LGT RAIN  66  53  63 E7        30.05F
LAS CRUCES     PTSUNNY   71  51  47 E6        30.07F
HOLLOMAN AFB   LGT RAIN  70  54  56 W6        30.05F
T OR C         MOSUNNY   70  47  43 SE3       30.08F

$$
NMZ519>523-202200-
CENTRAL VALLEYS/CENTRAL HIGHLANDS

CITY           SKY/WX    TMP DP  RH WIND       PRES   REMARKS
ALBUQUERQUE    PTSUNNY   70  42  36 SW7       30.12F
DOUBLE EAGLE   PTSUNNY   70  41  35 SE8       30.15F
MORIARTY ARPT  MOCLDY    63  39  41 SW10      30.17S
CLINES CORNERS MOSUNNY   67  40  37 E13G22    30.19F
BELEN          FAIR      72  41  32 SE6       30.12F
SOCORRO        FAIR      71  43  36 S5        30.09F

$$
NMZ524>526-539-540-202200-
SOUTHCENTRAL MOUNTAINS

CITY           SKY/WX    TMP DP  RH WIND       PRES   REMARKS
RUIDOSO        NOT AVBL

$$
NMZ527>531-202200-
NORTHEAST HIGHLANDS/NORTHEAST PLAINS

CITY           SKY/WX    TMP DP  RH WIND       PRES   REMARKS
LAS VEGAS      MOSUNNY   64  39  39 E12       30.21F
RATON          MOSUNNY   71  31  22 S12       30.17F
CLAYTON        SUNNY     71  43  36 NE8G18    30.15F

$$
NMZ532>537-202200-
EASTCENTRAL PLAINS

CITY           SKY/WX    TMP DP  RH WIND       PRES   REMARKS
TUCUMCARI      SUNNY     77  45  32 E3        30.07F
CANNON AFB     MOSUNNY   75  51  43 SE10      30.09F
CLOVIS AIRPORT PTSUNNY   75  52  43 SE6       30.12S

$$
NMZ028-029-538-202200-
SOUTHEAST PLAINS

CITY           SKY/WX    TMP DP  RH WIND       PRES   REMARKS
ROSWELL        MOSUNNY   72  56  57 S9        30.06F
CARLSBAD       CLOUDY    70  58  65 S5        30.04F
HOBBS          PTSUNNY   73  54  49 E13       30.07F


$$


USA.gov is the U.S. government's official web portal to all federal, state and local government web resources and services.